[[{"header":{"parameterUnit":"m.s-1","parameterCategory":1,"la1":30.2991,"la2":30.254,"lo1":-89.0895,"lo2":-89.0444,"dy":0.0017,"dx":0.0017,"nx":28,"ny":28,"refTime":"2025-04-26T03:00:00:Z","depth":0,"parameterNumber":2,"parameterNumberName":"U-component_of_WINDS"},"data":[0,0,0,0,0,0,0,0,0,0,0,0,0,0,0,0,0,0,0,0,0,0,0,0,0,0,0,0,0,0,0,0,0,0,0,0,0,0,0,0,0,0,0,0,0,0,0,0,0,0,0,0,0,0,0,0,0,0,1.1597,1.1599,0,1.1755,1.1757,1.1759,1.1804,1.1803,1.1803,1.1802,1.1965,1.197,1.1975,0,0,0,0,0,0,0,0,0,0,0,0,0,1.1336,1.134,1.1597,1.1599,1.1601,1.1755,1.1757,1.1759,1.1804,1.1803,1.1802,1.1801,1.1963,1.1969,1.1975,0,0,0,0,0,0,0,0,0,0,0,0,0,1.1467,1.1342,1.1597,1.1642,1.1648,1.1754,1.1757,1.176,1.1805,1.1803,1.1802,1.1801,1.1961,1.1969,1.1976,1.2049,0,0,1.2,1.2003,0,0,0,0,0,0,0,0,1.1459,1.1476,1.1634,1.1639,1.1646,1.1759,1.1725,1.1857,1.1805,1.1745,1.1802,1.18,1.1897,1.191,1.1943,1.2057,1.2064,1.2001,1.2005,1.2009,1.2011,0,0,0,0,0,0,0,1.145,1.147,1.166,1.1636,1.1643,1.1655,1.1672,1.175,1.1827,1.175,1.1754,1.1772,1.1901,1.1935,1.1947,1.2066,1.2,1.2007,1.2012,1.2015,1.2248,1.2249,0,0,0,0,0,0,1.1433,1.1462,1.1655,1.1664,1.1547,1.1661,1.168,1.1724,1.1826,1.184,1.1773,1.1773,1.1923,1.1938,1.1953,1.2045,1.2008,1.2016,1.202,1.2246,1.2248,1.225,0,0,0,0,0,0,1.1427,1.145,1.1648,1.1564,1.159,1.1666,1.1715,1.1728,1.1762,1.1843,1.1857,1.1794,1.1922,1.1942,1.2025,1.2051,1.2019,1.2026,1.2244,1.2247,1.2249,1.2229,0,0,0,0,0,0,1.142,1.1448,1.1476,1.1565,1.1595,1.1717,1.1717,1.1732,1.1775,1.1778,1.1867,1.188,1.1923,1.2013,1.2032,1.2061,1.2032,1.2242,1.2246,1.2248,1.2227,1.223,1.2232,0,0,0,0,0,1.141,1.1465,1.1477,1.15,1.1632,1.1719,1.1736,1.1784,1.1777,1.1806,1.1858,1.1877,1.2045,1.2021,1.2043,1.2075,1.2241,1.2245,1.2248,1.2226,1.223,1.2232,0,0,0,0,0,0,1.1378,1.1477,1.1492,1.1577,1.1639,1.1726,1.1765,1.1786,1.1851,1.1851,1.1907,1.1927,1.2006,1.2049,1.202,1.215,1.2143,1.2152,1.2119,1.2123,1.2125,1.2113,1.2039,0,0,0,0,0,1.1381,1.1443,1.1526,1.1593,1.1623,1.1688,1.1728,1.1759,1.1826,1.1852,1.191,1.1975,1.2042,1.2085,1.2151,1.2234,1.2254,1.2266,1.2269,1.227,1.2277,1.2323,1.2329,1.2261,1.2261,1.2261,0,0,1.1387,1.1449,1.1485,1.1588,1.1639,1.1702,1.171,1.1777,1.1824,1.1863,1.1944,1.1989,1.2064,1.2147,1.2186,1.2185,1.23,1.2275,1.2275,1.2281,1.2327,1.2333,1.2339,1.2264,1.2263,1.2263,0,0,1.143,1.1483,1.1544,1.1596,1.1674,1.1717,1.1731,1.1815,1.1846,1.1928,1.1959,1.2016,1.213,1.2183,1.2224,1.2286,1.2306,1.2306,1.2319,1.2364,1.2369,1.2374,1.2396,1.2403,1.2312,1.2312,1.2312,0,1.1429,1.1524,1.1573,1.1638,1.1682,1.1719,1.1781,1.1829,1.1925,1.1954,1.1952,1.2095,1.2149,1.2244,1.2259,1.2292,1.231,1.2297,1.2364,1.237,1.2375,1.2396,1.2404,1.2312,1.2312,1.2312,1.2312,0,1.1518,1.1584,1.1624,1.1714,1.1763,1.1826,1.1884,1.1928,1.1954,1.1997,1.208,1.2146,1.2226,1.225,1.2278,1.2349,1.2346,1.2353,1.2347,1.238,1.2401,1.241,1.2311,1.2311,1.2311,1.2312,0,0,1.1546,1.1662,1.1676,1.1717,1.1805,1.1857,1.1921,1.1999,1.2035,1.2099,1.2155,1.225,1.2257,1.2304,1.2337,1.2376,1.242,1.2378,1.2381,1.2383,1.2503,1.2496,1.2505,1.2434,1.2435,1.2437,1.2496,0,1.16,1.1717,1.1762,1.1856,1.1918,1.1953,1.2009,1.2069,1.2111,1.2169,1.2216,1.2282,1.2286,1.2315,1.2355,1.2406,1.2445,1.2403,1.2486,1.2488,1.2465,1.2516,1.251,1.2563,1.2505,1.2506,1.2507,0,1.168,1.1744,1.1844,1.1924,1.1951,1.2001,1.2075,1.213,1.2198,1.2226,1.2278,1.2309,1.2378,1.2367,1.2463,1.2433,1.247,1.25,1.2503,1.2512,1.2499,1.2527,1.2581,1.2589,1.252,1.2519,1.2518,0,1.1689,1.1801,1.1875,1.1909,1.2004,1.2038,1.208,1.2147,1.219,1.2255,1.2284,1.2356,1.2395,1.245,1.25,1.2488,1.259,1.2584,1.2615,1.2614,1.2635,1.2633,1.2696,1.2659,1.2659,1.2659,1.2659,0,1.1745,1.1805,1.1881,1.1926,1.1994,1.2046,1.2112,1.2155,1.2215,1.227,1.2305,1.2356,1.2418,1.2477,1.2516,1.2588,1.2606,1.2631,1.264,1.2627,1.2624,1.2652,1.265,1.2661,1.2661,1.266,1.266,0,1.1768,1.1821,1.1904,1.1987,1.2009,1.2055,1.2126,1.2172,1.2215,1.2284,1.2303,1.237,1.2441,1.2496,1.2588,1.2614,1.2691,1.2702,1.2668,1.2673,1.27,1.2697,1.2783,1.2797,1.2751,1.2751,1.2751,0,1.1799,1.1846,1.1933,1.1972,1.2013,1.2075,1.2119,1.2172,1.2216,1.2297,1.2333,1.2406,1.2467,1.2579,1.2636,1.2707,1.2719,1.2745,1.273,1.2716,1.2719,1.2716,1.2721,1.2746,1.2747,1.2747,1.2747,0,1.185,1.1874,1.1936,1.2006,1.2058,1.2116,1.2175,1.2205,1.2268,1.2316,1.2388,1.2436,1.2529,1.2602,1.2678,1.2721,1.2744,1.2751,1.2762,1.2749,1.2727,1.2739,1.2672,1.2749,1.2749,1.2749,1.2748,1.2748,1.1879,1.1921,1.1989,1.2056,1.2106,1.216,1.2207,1.2255,1.2316,1.2396,1.2423,1.2498,1.2565,1.267,1.2713,1.2772,1.2773,1.2789,1.2793,1.2796,1.2794,1.2718,1.2786,1.2786,1.2786,1.2786,1.2786,0,1.1931,1.1976,1.2037,1.2118,1.2171,1.2188,1.2254,1.2297,1.2362,1.2422,1.2481,1.2564,1.2634,1.2697,1.2769,1.2804,1.2817,1.2822,1.282,1.2829,1.279,1.2773,1.281,1.281,1.281,1.281,1.281,1.281,1.1964,1.2037,1.2069,1.2166,1.2211,1.2284,1.232,1.237,1.2418,1.2509,1.2567,1.2607,1.2668,1.2746,1.281,1.2827,1.2852,1.2854,1.2873,1.2835,1.2832,1.2829,1.2813,1.2859,1.2859,1.2908,1.2908,1.2909]},{"header":{"parameterUnit":"m.s-1","parameterCategory":1,"la1":30.2991,"la2":30.254,"lo1":-89.0895,"lo2":-89.0444,"dy":0.0017,"dx":0.0017,"nx":28,"ny":28,"refTime":"2025-04-26T03:00:00:Z","depth":0,"parameterNumber":3,"parameterNumberName":"V-component_of_WINDS"},"data":[0,0,0,0,0,0,0,0,0,0,0,0,0,0,0,0,0,0,0,0,0,0,0,0,0,0,0,0,0,0,0,0,0,0,0,0,0,0,0,0,0,0,0,0,0,0,0,0,0,0,0,0,0,0,0,0,0,0,2.0201,2.0201,0,2.014,2.0139,2.0139,2.0067,2.0066,2.0065,2.0064,1.9999,1.9998,1.9997,0,0,0,0,0,0,0,0,0,0,0,0,0,2.0254,2.0253,2.0201,2.0201,2.02,2.014,2.0139,2.0139,2.0068,2.0066,2.0065,2.0064,1.9999,1.9998,1.9997,0,0,0,0,0,0,0,0,0,0,0,0,0,2.0216,2.0253,2.0201,2.0157,2.0153,2.014,2.0139,2.0138,2.0068,2.0066,2.0065,2.0063,1.9999,1.9998,1.9997,2.0023,0,0,1.9994,1.9993,0,0,0,0,0,0,0,0,2.0218,2.0214,2.0164,2.016,2.0155,2.011,2.0134,2.0099,2.0068,2.01,2.0064,2.0062,2.0037,2.0033,2.0025,2.002,2.0017,1.9994,1.9993,1.9992,1.9992,0,0,0,0,0,0,0,2.0221,2.0216,2.0177,2.0164,2.0158,2.014,2.0132,2.0127,2.0078,2.0097,2.0092,2.0086,2.0034,2.0026,2.0022,2.0016,1.9994,1.9993,1.9992,1.9992,2.0028,2.0029,0,0,0,0,0,0,2.023,2.0219,2.0179,2.0175,2.0183,2.014,2.0132,2.0126,2.0078,2.0069,2.0087,2.0083,2.0028,2.0024,2.002,2.0046,1.9992,1.9991,1.9991,2.0026,2.0028,2.003,0,0,0,0,0,0,2.0232,2.0227,2.0181,2.0195,2.0188,2.0141,2.0135,2.0126,2.0117,2.007,2.0061,2.0088,2.0027,2.0021,2.0023,2.0043,1.9991,1.999,2.0024,2.0027,2.0029,2.01,0,0,0,0,0,0,2.0234,2.0228,2.0238,2.0196,2.0188,2.0186,2.0136,2.0126,2.0116,2.0109,2.0069,2.006,2.0025,2.0025,2.0021,2.004,1.9989,2.0022,2.0025,2.0028,2.0095,2.0104,2.0112,0,0,0,0,0,2.0236,2.026,2.0239,2.0235,2.0199,2.0188,2.0182,2.0142,2.0118,2.0127,2.0097,2.0062,2.0041,2.0025,2.0021,2.004,2.0021,2.0025,2.0028,2.0091,2.0102,2.0112,0,0,0,0,0,0,2.0304,2.0254,2.023,2.0241,2.022,2.0176,2.0186,2.0155,2.0139,2.0133,2.0083,2.0075,2.0082,2.0061,2.0044,2.0062,2.0026,2.0029,2.0076,2.0085,2.0094,2.0098,1.9988,0,0,0,0,0,2.0321,2.0317,2.0272,2.0287,2.0277,2.0234,2.0227,2.0198,2.0173,2.0163,2.0133,2.0109,2.0097,2.009,2.0076,2.0092,2.0082,2.0103,2.0111,2.0118,2.0121,2.0128,2.0136,2.0042,2.0042,2.0042,0,0,2.0355,2.0327,2.0327,2.03,2.0279,2.0275,2.0226,2.0224,2.022,2.0162,2.0162,2.0139,2.0108,2.0117,2.0119,2.01,2.0145,2.0123,2.0129,2.0128,2.0132,2.0141,2.0149,2.0045,2.0044,2.0044,0,0,2.0415,2.0394,2.0403,2.0384,2.0354,2.0325,2.0328,2.0288,2.0271,2.027,2.0227,2.0221,2.0202,2.0182,2.0169,2.0222,2.0189,2.0219,2.0262,2.0269,2.0276,2.0283,2.0301,2.0309,2.0222,2.0223,2.0223,0,2.0461,2.0454,2.0412,2.0412,2.0401,2.035,2.0359,2.0342,2.0309,2.0302,2.0281,2.0256,2.0232,2.0235,2.0248,2.024,2.024,2.0223,2.0279,2.0285,2.029,2.0307,2.0314,2.0226,2.0226,2.0226,2.0225,0,2.0512,2.0508,2.0519,2.0489,2.0479,2.0484,2.0442,2.0437,2.0409,2.0382,2.0382,2.0351,2.0331,2.0329,2.0301,2.0328,2.0317,2.0288,2.0251,2.0304,2.0319,2.0325,2.0232,2.0231,2.0229,2.0228,0,0,2.0613,2.0561,2.0565,2.0551,2.0515,2.051,2.0512,2.0493,2.049,2.0469,2.0469,2.0454,2.0427,2.0413,2.0382,2.0388,2.0432,2.0358,2.0357,2.0373,2.0459,2.0481,2.0489,2.041,2.0411,2.0412,2.0462,0,2.0666,2.0668,2.063,2.0642,2.0637,2.0588,2.059,2.0567,2.0542,2.0534,2.0505,2.0496,2.0461,2.0452,2.0456,2.0426,2.0448,2.0422,2.0409,2.0409,2.0418,2.0497,2.052,2.0569,2.0467,2.0468,2.0469,0,2.0728,2.0712,2.0724,2.0687,2.0683,2.0686,2.0665,2.0658,2.0631,2.0612,2.0597,2.0562,2.0561,2.0526,2.0523,2.0505,2.0498,2.0482,2.0483,2.048,2.0442,2.0496,2.0583,2.059,2.0478,2.0477,2.0477,0,2.0801,2.0781,2.0786,2.0775,2.0732,2.0735,2.0717,2.0689,2.068,2.0661,2.0655,2.0636,2.0626,2.0612,2.0573,2.0551,2.0574,2.0536,2.0558,2.0559,2.0565,2.0565,2.0652,2.056,2.056,2.056,2.056,0,2.0864,2.0873,2.0818,2.0821,2.0829,2.0785,2.0795,2.0772,2.0747,2.0744,2.07,2.0698,2.0647,2.0638,2.0608,2.0609,2.0605,2.0589,2.0581,2.0593,2.0595,2.0587,2.0583,2.0562,2.0562,2.0561,2.0561,0,2.0946,2.091,2.0911,2.0871,2.0861,2.0869,2.0834,2.0834,2.0806,2.0803,2.0799,2.0756,2.0744,2.0704,2.0681,2.0661,2.0672,2.0656,2.0682,2.0676,2.07,2.0699,2.0785,2.0793,2.0697,2.0698,2.0699,0,2.0989,2.0995,2.0955,2.095,2.0935,2.0927,2.0918,2.0875,2.0867,2.0837,2.0841,2.0826,2.0811,2.0794,2.076,2.0742,2.0726,2.0757,2.0722,2.0735,2.0726,2.0726,2.0726,2.0764,2.0766,2.0767,2.0768,0,2.1068,2.105,2.1039,2.1022,2.1013,2.0997,2.0978,2.0977,2.0928,2.0921,2.0909,2.0898,2.0876,2.0861,2.0838,2.0818,2.0785,2.0779,2.0783,2.0795,2.081,2.0802,2.0702,2.0777,2.0776,2.0775,2.0775,2.0774,2.1131,2.1134,2.1107,2.1096,2.1078,2.1062,2.1061,2.1033,2.1023,2.1002,2.0977,2.0968,2.094,2.0906,2.0889,2.088,2.0862,2.0868,2.0869,2.0872,2.0877,2.0811,2.0876,2.0876,2.0875,2.0875,2.0875,0,2.1208,2.1189,2.1179,2.1155,2.1147,2.1117,2.1095,2.109,2.1083,2.106,2.1047,2.1033,2.1019,2.0983,2.0965,2.0965,2.0949,2.0962,2.0961,2.0957,2.0895,2.0893,2.0975,2.0975,2.0975,2.0975,2.0975,2.0975,2.1247,2.1251,2.123,2.1224,2.1204,2.1195,2.1185,2.117,2.1152,2.1139,2.1127,2.1104,2.1076,2.1056,2.1041,2.1031,2.1026,2.1044,2.1028,2.0971,2.0961,2.0952,2.095,2.1043,2.1043,2.1091,2.1092,2.1092]}]]